AVA221 MDPC-SKRG

Flight info

Callsign AVA221
Flight time 2h 14m
Altitude 38000
Route MELLA2W MELLA DCT BEROX DCT AMBAS DCT RHC DCT MGN/N0454F390 UW3 BIVIG BIVIG3C
Aircraft A320/M-SDE3FGHIRWY/LB1

Departure

Time 2026-04-26 22:33
Airport Punta Cana International Airport (MDPC)

Arrival

Time 2026-04-27 00:47
Airport Jose Maria Córdova International Airport (SKRG)
Time Latitude Longitude Altitude Speed Heading
2026-04-26 21:42 18.56373 -68.36392 51 ft 0 kts 175°
2026-04-26 22:10 18.56388 -68.36393 50 ft 4 kts 177°
2026-04-26 22:10 18.56415 -68.36395 50 ft 4 kts 176°
2026-04-26 22:11 18.56442 -68.36394 50 ft 4 kts 197°
2026-04-26 22:11 18.56462 -68.36381 50 ft 4 kts 247°
2026-04-26 22:11 18.56465 -68.36372 50 ft 0 kts 268°
2026-04-26 22:15 18.56467 -68.36388 50 ft 6 kts 291°
2026-04-26 22:15 18.56527 -68.36403 50 ft 13 kts 350°
2026-04-26 22:16 18.56606 -68.36415 51 ft 9 kts 355°
2026-04-26 22:16 18.56627 -68.36417 51 ft 0 kts 355°
2026-04-26 22:25 18.56658 -68.36419 49 ft 12 kts 355°
2026-04-26 22:26 18.56720 -68.36492 49 ft 19 kts 267°
2026-04-26 22:26 18.56714 -68.36602 53 ft 12 kts 264°
2026-04-26 22:26 18.56706 -68.36682 53 ft 10 kts 264°
2026-04-26 22:26 18.56700 -68.36750 53 ft 9 kts 264°
2026-04-26 22:27 18.56695 -68.36810 53 ft 8 kts 265°
2026-04-26 22:27 18.56691 -68.36864 50 ft 7 kts 265°
2026-04-26 22:27 18.56687 -68.36915 53 ft 9 kts 265°
2026-04-26 22:27 18.56680 -68.36998 50 ft 14 kts 264°
2026-04-26 22:28 18.56669 -68.37119 52 ft 19 kts 265°
2026-04-26 22:28 18.56654 -68.37281 51 ft 25 kts 264°
2026-04-26 22:28 18.56636 -68.37478 51 ft 28 kts 265°
2026-04-26 22:28 18.56621 -68.37668 52 ft 18 kts 265°
2026-04-26 22:29 18.56642 -68.37789 50 ft 17 kts 324°
2026-04-26 22:29 18.56712 -68.37875 49 ft 15 kts 294°
2026-04-26 22:29 18.56754 -68.37972 49 ft 14 kts 294°
2026-04-26 22:29 18.56791 -68.38061 50 ft 13 kts 293°
2026-04-26 22:30 18.56831 -68.38132 50 ft 11 kts 326°
2026-04-26 22:30 18.56898 -68.38153 50 ft 9 kts 345°
2026-04-26 22:30 18.56954 -68.38170 51 ft 7 kts 342°
2026-04-26 22:30 18.56995 -68.38184 52 ft 5 kts 344°
2026-04-26 22:31 18.57023 -68.38192 52 ft 3 kts 344°
2026-04-26 22:31 18.57042 -68.38196 52 ft 4 kts 355°
2026-04-26 22:31 18.57067 -68.38162 51 ft 3 kts 73°
2026-04-26 22:31 18.57073 -68.38142 52 ft 3 kts 74°
2026-04-26 22:32 18.57083 -68.38104 49 ft 19 kts 74°
2026-04-26 22:32 18.57199 -68.37681 46 ft 97 kts 74°
2026-04-26 22:32 18.57443 -68.36794 47 ft 153 kts 74°
2026-04-26 22:32 18.57754 -68.35649 521 ft 164 kts 77°
2026-04-26 22:33 18.58087 -68.34490 1233 ft 167 kts 76°
2026-04-26 22:33 18.58785 -68.31972 2143 ft 200 kts 80°
2026-04-26 22:33 18.58702 -68.30458 2484 ft 221 kts 114°
2026-04-26 22:34 18.57702 -68.29149 2918 ft 244 kts 143°
2026-04-26 22:34 18.56128 -68.28363 3564 ft 259 kts 168°
2026-04-26 22:34 18.54313 -68.28458 4422 ft 268 kts 197°
2026-04-26 22:34 18.52649 -68.29393 5068 ft 274 kts 212°
2026-04-26 22:35 18.51063 -68.30512 6009 ft 276 kts 213°
2026-04-26 22:35 18.49469 -68.31670 6904 ft 280 kts 214°
2026-04-26 22:35 18.47854 -68.32848 7766 ft 284 kts 214°
2026-04-26 22:35 18.46220 -68.34035 8615 ft 287 kts 214°
2026-04-26 22:36 18.44560 -68.35234 9424 ft 291 kts 213°
2026-04-26 22:36 18.42878 -68.36443 10198 ft 296 kts 214°
2026-04-26 22:36 18.41105 -68.37708 10472 ft 320 kts 214°
2026-04-26 22:36 18.39199 -68.39062 10758 ft 339 kts 214°
2026-04-26 22:37 18.37218 -68.40472 11385 ft 346 kts 214°
2026-04-26 22:37 18.35216 -68.41899 12135 ft 349 kts 215°
2026-04-26 22:37 18.33201 -68.43335 12906 ft 351 kts 215°
2026-04-26 22:37 18.31174 -68.44779 13615 ft 354 kts 215°
2026-04-26 22:38 18.29154 -68.46217 14300 ft 357 kts 215°
2026-04-26 22:38 18.27060 -68.47707 14976 ft 360 kts 215°
2026-04-26 22:38 18.25004 -68.49170 15627 ft 363 kts 216°
2026-04-26 22:38 18.22905 -68.50661 16242 ft 366 kts 216°
2026-04-26 22:39 18.20778 -68.52170 16846 ft 369 kts 216°
2026-04-26 22:39 18.18639 -68.53686 17439 ft 372 kts 216°
2026-04-26 22:39 18.16481 -68.55215 18008 ft 375 kts 216°
2026-04-26 22:39 18.14310 -68.56755 18580 ft 378 kts 216°
2026-04-26 22:40 18.12123 -68.58308 19132 ft 381 kts 216°
2026-04-26 22:40 18.09919 -68.59872 19674 ft 383 kts 216°
2026-04-26 22:40 18.07705 -68.61443 20196 ft 385 kts 216°
2026-04-26 22:40 18.05479 -68.63019 20705 ft 387 kts 216°
2026-04-26 22:41 18.03234 -68.64608 21209 ft 389 kts 216°
2026-04-26 22:41 18.00979 -68.66203 21679 ft 392 kts 216°
2026-04-26 22:41 17.98711 -68.67807 22139 ft 394 kts 216°
2026-04-26 22:41 17.96427 -68.69425 22570 ft 397 kts 216°
2026-04-26 22:42 17.94134 -68.71050 22997 ft 399 kts 216°
2026-04-26 22:42 17.91822 -68.72687 23425 ft 401 kts 216°
2026-04-26 22:42 17.89504 -68.74330 23841 ft 403 kts 216°
2026-04-26 22:42 17.87205 -68.75956 24240 ft 405 kts 216°
2026-04-26 22:43 17.84832 -68.77631 24629 ft 407 kts 216°
2026-04-26 22:43 17.82504 -68.79273 24993 ft 409 kts 216°
2026-04-26 22:43 17.80135 -68.80943 25343 ft 411 kts 216°
2026-04-26 22:43 17.77759 -68.82621 25701 ft 413 kts 216°
2026-04-26 22:44 17.75363 -68.84313 26041 ft 416 kts 216°
2026-04-26 22:44 17.72960 -68.86009 26387 ft 417 kts 216°
2026-04-26 22:44 17.70543 -68.87712 26719 ft 420 kts 216°
2026-04-26 22:44 17.68111 -68.89428 27061 ft 421 kts 216°
2026-04-26 22:45 17.65676 -68.91146 27391 ft 423 kts 216°
2026-04-26 22:45 17.63225 -68.92870 27710 ft 425 kts 216°
2026-04-26 22:45 17.60766 -68.94601 28016 ft 427 kts 216°
2026-04-26 22:45 17.58298 -68.96340 28314 ft 429 kts 216°
2026-04-26 22:46 17.55815 -68.98089 28602 ft 430 kts 217°
2026-04-26 22:46 17.53323 -68.99841 28883 ft 432 kts 217°
2026-04-26 22:46 17.50822 -69.01598 29170 ft 434 kts 217°
2026-04-26 22:46 17.48313 -69.03365 29443 ft 435 kts 217°
2026-04-26 22:47 17.45795 -69.05137 29717 ft 437 kts 217°
2026-04-26 22:47 17.43267 -69.06917 29987 ft 438 kts 217°
2026-04-26 22:47 17.40734 -69.08700 30236 ft 440 kts 217°
2026-04-26 22:47 17.38191 -69.10488 30584 ft 439 kts 217°
2026-04-26 22:48 17.35658 -69.12268 30982 ft 437 kts 217°
2026-04-26 22:48 17.33139 -69.14037 31384 ft 435 kts 217°
2026-04-26 22:48 17.30633 -69.15795 31770 ft 433 kts 217°
2026-04-26 22:48 17.28135 -69.17546 32162 ft 431 kts 217°
2026-04-26 22:49 17.25650 -69.19291 32551 ft 429 kts 217°
2026-04-26 22:49 17.23178 -69.21025 32946 ft 427 kts 217°
2026-04-26 22:49 17.20711 -69.22748 33344 ft 425 kts 216°
2026-04-26 22:49 17.18258 -69.24459 33715 ft 423 kts 216°
2026-04-26 22:50 17.15820 -69.26161 34094 ft 421 kts 216°
2026-04-26 22:50 17.13390 -69.27862 34473 ft 420 kts 216°
2026-04-26 22:50 17.10971 -69.29558 34846 ft 417 kts 216°
2026-04-26 22:50 17.08564 -69.31245 35176 ft 416 kts 216°
2026-04-26 22:51 17.06158 -69.32929 35461 ft 416 kts 216°
2026-04-26 22:51 17.03761 -69.34609 35767 ft 414 kts 216°
2026-04-26 22:51 17.01365 -69.36289 35933 ft 414 kts 216°
2026-04-26 22:52 16.96574 -69.39637 35963 ft 414 kts 216°
2026-04-26 22:52 16.91789 -69.42973 35952 ft 413 kts 216°
2026-04-26 22:53 16.86995 -69.46312 35952 ft 414 kts 216°
2026-04-26 22:53 16.82203 -69.49656 35953 ft 414 kts 216°
2026-04-26 22:54 16.77446 -69.52982 35949 ft 414 kts 215°
2026-04-26 22:54 16.72646 -69.56317 35946 ft 415 kts 215°
2026-04-26 22:55 16.67836 -69.59656 35944 ft 415 kts 215°
2026-04-26 22:55 16.63031 -69.63001 35944 ft 416 kts 215°
2026-04-26 22:56 16.58219 -69.66353 35942 ft 416 kts 215°
2026-04-26 22:56 16.53405 -69.69698 35945 ft 416 kts 215°
2026-04-26 22:57 16.48581 -69.73038 35936 ft 416 kts 215°
2026-04-26 22:57 16.43753 -69.76385 35935 ft 417 kts 215°
2026-04-26 22:58 16.38927 -69.79742 35933 ft 417 kts 215°
2026-04-26 22:58 16.34127 -69.83068 35940 ft 419 kts 215°
2026-04-26 22:59 16.29276 -69.86425 35956 ft 419 kts 215°
2026-04-26 22:59 16.24431 -69.89787 35956 ft 418 kts 214°
2026-04-26 23:00 16.19587 -69.93137 35944 ft 419 kts 214°
2026-04-26 23:00 16.14736 -69.96496 35938 ft 419 kts 214°
2026-04-26 23:01 16.09879 -69.99844 35933 ft 419 kts 214°
2026-04-26 23:01 16.05012 -70.03194 35932 ft 420 kts 214°
2026-04-26 23:02 16.00143 -70.06546 35932 ft 420 kts 214°
2026-04-26 23:02 15.95112 -70.09632 35928 ft 420 kts 210°
2026-04-26 23:03 15.89942 -70.12478 35927 ft 421 kts 209°
2026-04-26 23:03 15.84771 -70.15324 35927 ft 420 kts 210°
2026-04-26 23:04 15.79635 -70.18229 35927 ft 420 kts 210°
2026-04-26 23:04 15.74512 -70.21154 35928 ft 420 kts 210°
2026-04-26 23:05 15.69420 -70.24059 35925 ft 420 kts 210°
2026-04-26 23:05 15.64288 -70.26979 35921 ft 420 kts 210°
2026-04-26 23:06 15.59152 -70.29889 35918 ft 421 kts 210°
2026-04-26 23:06 15.54011 -70.32796 35915 ft 421 kts 210°
2026-04-26 23:07 15.49737 -70.35217 35918 ft 421 kts 210°
2026-04-26 23:07 15.44586 -70.38133 35916 ft 422 kts 210°
2026-04-26 23:08 15.39433 -70.41050 35915 ft 422 kts 210°
2026-04-26 23:08 15.34276 -70.43969 35916 ft 422 kts 210°
2026-04-26 23:09 15.29114 -70.46887 35916 ft 422 kts 210°
2026-04-26 23:09 15.23956 -70.49804 35912 ft 423 kts 210°
2026-04-26 23:10 15.18790 -70.52720 35909 ft 423 kts 210°
2026-04-26 23:10 15.13624 -70.55636 35908 ft 423 kts 210°
2026-04-26 23:11 15.08453 -70.58563 35907 ft 424 kts 210°
2026-04-26 23:11 15.03274 -70.61483 35910 ft 424 kts 210°
2026-04-26 23:12 14.98085 -70.64395 35911 ft 424 kts 210°
2026-04-26 23:12 14.92898 -70.67315 35912 ft 425 kts 210°
2026-04-26 23:13 14.87713 -70.70243 35914 ft 425 kts 210°
2026-04-26 23:13 14.82556 -70.73142 35915 ft 425 kts 210°
2026-04-26 23:14 14.77330 -70.76082 35914 ft 425 kts 210°
2026-04-26 23:14 14.72167 -70.78983 35913 ft 425 kts 210°
2026-04-26 23:15 14.66961 -70.81906 35916 ft 425 kts 209°
2026-04-26 23:15 14.61766 -70.84831 35912 ft 425 kts 210°
2026-04-26 23:16 14.56565 -70.87756 35909 ft 426 kts 209°
2026-04-26 23:16 14.51348 -70.90680 35913 ft 426 kts 209°
2026-04-26 23:17 14.46130 -70.93594 35916 ft 426 kts 209°
2026-04-26 23:17 14.40911 -70.96515 35919 ft 426 kts 209°
2026-04-26 23:18 14.35696 -70.99436 35919 ft 426 kts 209°
2026-04-26 23:18 14.30485 -71.02351 35918 ft 426 kts 209°
2026-04-26 23:19 14.25262 -71.05263 35921 ft 426 kts 209°
2026-04-26 23:19 14.20080 -71.08156 35923 ft 426 kts 209°
2026-04-26 23:20 14.14827 -71.11095 35924 ft 427 kts 209°
2026-04-26 23:20 14.09607 -71.14016 35926 ft 427 kts 209°
2026-04-26 23:21 14.04425 -71.16912 35925 ft 427 kts 209°
2026-04-26 23:21 13.99202 -71.19824 35924 ft 427 kts 209°
2026-04-26 23:22 13.93974 -71.22738 35915 ft 428 kts 208°
2026-04-26 23:22 13.88734 -71.25659 35914 ft 428 kts 208°
2026-04-26 23:23 13.83483 -71.28579 35920 ft 429 kts 208°
2026-04-26 23:23 13.78235 -71.31493 35919 ft 429 kts 208°
2026-04-26 23:24 13.72981 -71.34419 35923 ft 430 kts 208°
2026-04-26 23:24 13.67725 -71.37341 35931 ft 430 kts 208°
2026-04-26 23:25 13.62466 -71.40270 35932 ft 430 kts 208°
2026-04-26 23:25 13.57211 -71.43194 35930 ft 430 kts 208°
2026-04-26 23:26 13.51987 -71.46095 35930 ft 429 kts 208°
2026-04-26 23:26 13.46730 -71.49002 35927 ft 429 kts 208°
2026-04-26 23:27 13.41468 -71.51923 35927 ft 430 kts 208°
2026-04-26 23:27 13.36200 -71.54847 35926 ft 431 kts 208°
2026-04-26 23:28 13.30925 -71.57765 35927 ft 430 kts 208°
2026-04-26 23:28 13.25651 -71.60680 35926 ft 430 kts 208°
2026-04-26 23:29 13.20387 -71.63600 35924 ft 430 kts 208°
2026-04-26 23:29 13.15116 -71.66516 35923 ft 430 kts 208°
2026-04-26 23:30 13.09845 -71.69435 35920 ft 430 kts 208°
2026-04-26 23:30 13.04567 -71.72353 35920 ft 431 kts 208°
2026-04-26 23:31 12.99309 -71.75256 35919 ft 432 kts 208°
2026-04-26 23:31 12.94013 -71.78179 35918 ft 432 kts 208°
2026-04-26 23:32 12.88708 -71.81104 35918 ft 433 kts 208°
2026-04-26 23:32 12.83412 -71.84038 35917 ft 433 kts 208°
2026-04-26 23:33 12.78524 -71.87617 35913 ft 433 kts 218°
2026-04-26 23:33 12.73850 -71.91515 35908 ft 433 kts 218°
2026-04-26 23:34 12.69170 -71.95408 35904 ft 434 kts 218°
2026-04-26 23:34 12.64480 -71.99314 35900 ft 434 kts 218°
2026-04-26 23:35 12.59786 -72.03214 35900 ft 435 kts 218°
2026-04-26 23:35 12.55087 -72.07117 35902 ft 435 kts 218°
2026-04-26 23:36 12.50394 -72.11020 35899 ft 435 kts 218°
2026-04-26 23:36 12.45725 -72.14899 35891 ft 435 kts 218°
2026-04-26 23:37 12.40996 -72.18828 35888 ft 435 kts 218°
2026-04-26 23:37 12.36327 -72.22703 35887 ft 435 kts 218°
2026-04-26 23:38 12.31616 -72.26607 35886 ft 436 kts 218°
2026-04-26 23:38 12.26905 -72.30502 35884 ft 436 kts 218°
2026-04-26 23:39 12.22193 -72.34400 35884 ft 436 kts 218°
2026-04-26 23:39 12.17489 -72.38299 35883 ft 436 kts 218°
2026-04-26 23:40 12.12776 -72.42201 35883 ft 436 kts 218°
2026-04-26 23:40 12.08064 -72.46106 35882 ft 436 kts 218°
2026-04-26 23:41 12.03355 -72.50007 35883 ft 436 kts 218°
2026-04-26 23:41 11.98641 -72.53900 35868 ft 436 kts 218°
2026-04-26 23:42 11.93924 -72.57797 35864 ft 436 kts 218°
2026-04-26 23:42 11.86848 -72.63647 35856 ft 437 kts 218°
2026-04-26 23:43 11.82115 -72.67547 35865 ft 437 kts 218°
2026-04-26 23:43 11.77387 -72.71447 35856 ft 437 kts 218°
2026-04-26 23:44 11.72655 -72.75351 35864 ft 437 kts 218°
2026-04-26 23:44 11.67928 -72.79251 35861 ft 437 kts 218°
2026-04-26 23:45 11.63998 -72.82494 35849 ft 437 kts 218°
2026-04-26 23:45 11.58456 -72.87055 35848 ft 438 kts 218°
2026-04-26 23:46 11.53718 -72.90945 35853 ft 438 kts 218°
2026-04-26 23:46 11.49016 -72.94895 35850 ft 438 kts 219°
2026-04-26 23:47 11.44392 -72.98955 35853 ft 439 kts 220°
2026-04-26 23:47 11.39776 -73.03025 35854 ft 439 kts 219°
2026-04-26 23:48 11.35135 -73.07077 35845 ft 439 kts 219°
2026-04-26 23:48 11.30507 -73.11089 35849 ft 440 kts 219°
2026-04-26 23:49 11.25840 -73.15123 35848 ft 440 kts 219°
2026-04-26 23:49 11.21181 -73.19168 35853 ft 440 kts 219°
2026-04-26 23:50 11.16519 -73.23216 35855 ft 440 kts 219°
2026-04-26 23:50 11.11847 -73.27264 35860 ft 441 kts 219°
2026-04-26 23:51 11.07170 -73.31309 35876 ft 442 kts 219°
2026-04-26 23:51 11.02493 -73.35361 35881 ft 441 kts 219°
2026-04-26 23:52 10.97818 -73.39418 35880 ft 442 kts 219°
2026-04-26 23:52 10.93137 -73.43467 35874 ft 441 kts 219°
2026-04-26 23:53 10.89244 -73.46824 35885 ft 442 kts 219°
2026-04-26 23:53 10.84555 -73.50866 35891 ft 442 kts 219°
2026-04-26 23:54 10.79877 -73.54922 35893 ft 442 kts 219°
2026-04-26 23:54 10.75198 -73.58982 35891 ft 442 kts 219°
2026-04-26 23:55 10.70510 -73.63030 35892 ft 442 kts 219°
2026-04-26 23:55 10.65813 -73.67067 35893 ft 442 kts 219°
2026-04-26 23:56 10.61115 -73.71118 35889 ft 442 kts 219°
2026-04-26 23:56 10.56424 -73.75166 35891 ft 443 kts 219°
2026-04-26 23:57 10.51729 -73.79217 35893 ft 442 kts 219°
2026-04-26 23:57 10.47034 -73.83268 35893 ft 443 kts 219°
2026-04-26 23:58 10.42369 -73.87290 35897 ft 443 kts 219°
2026-04-26 23:58 10.37661 -73.91341 35900 ft 443 kts 219°
2026-04-26 23:59 10.32955 -73.95385 35902 ft 443 kts 219°
2026-04-26 23:59 10.28252 -73.99434 35905 ft 443 kts 219°
2026-04-27 00:00 10.23552 -74.03482 35906 ft 443 kts 219°
2026-04-27 00:00 10.18847 -74.07525 35906 ft 443 kts 219°
2026-04-27 00:01 10.14137 -74.11567 35908 ft 443 kts 218°
2026-04-27 00:01 10.09426 -74.15608 35911 ft 444 kts 219°
2026-04-27 00:02 10.04710 -74.19659 35912 ft 443 kts 219°
2026-04-27 00:02 10.00035 -74.23676 35911 ft 443 kts 218°
2026-04-27 00:03 9.95327 -74.27710 35909 ft 443 kts 218°
2026-04-27 00:03 9.90616 -74.31745 35909 ft 443 kts 218°
2026-04-27 00:04 9.85910 -74.35782 35904 ft 443 kts 219°
2026-04-27 00:04 9.81200 -74.39820 35903 ft 444 kts 219°
2026-04-27 00:05 9.76482 -74.43863 35901 ft 444 kts 218°
2026-04-27 00:05 9.71759 -74.47898 35901 ft 444 kts 218°
2026-04-27 00:06 9.67035 -74.51937 35897 ft 444 kts 218°
2026-04-27 00:06 9.62319 -74.55977 35892 ft 444 kts 219°
2026-04-27 00:07 9.57593 -74.60024 35887 ft 445 kts 219°
2026-04-27 00:07 9.52864 -74.64068 35881 ft 445 kts 218°
2026-04-27 00:08 9.48134 -74.68105 35868 ft 445 kts 218°
2026-04-27 00:08 9.43396 -74.72147 35875 ft 445 kts 218°
2026-04-27 00:09 9.38663 -74.76193 35874 ft 445 kts 219°
2026-04-27 00:09 9.33925 -74.80234 35862 ft 445 kts 218°
2026-04-27 00:10 9.28921 -74.83806 35873 ft 443 kts 205°
2026-04-27 00:10 9.23060 -74.85582 35865 ft 441 kts 188°
2026-04-27 00:11 9.16982 -74.86515 35870 ft 442 kts 188°
2026-04-27 00:11 9.10891 -74.87457 35872 ft 443 kts 188°
2026-04-27 00:12 9.04808 -74.88403 35889 ft 442 kts 188°
2026-04-27 00:12 8.98733 -74.89344 35889 ft 441 kts 188°
2026-04-27 00:13 8.92660 -74.90280 35890 ft 442 kts 188°
2026-04-27 00:13 8.86580 -74.91221 35892 ft 442 kts 188°
2026-04-27 00:14 8.80501 -74.92167 35893 ft 442 kts 188°
2026-04-27 00:14 8.74456 -74.93105 35895 ft 442 kts 187°
2026-04-27 00:15 8.68364 -74.94042 35899 ft 443 kts 187°
2026-04-27 00:15 8.62272 -74.94985 35901 ft 443 kts 188°
2026-04-27 00:16 8.56176 -74.95926 35901 ft 443 kts 187°
2026-04-27 00:16 8.50082 -74.96868 35899 ft 443 kts 187°
2026-04-27 00:17 8.43989 -74.97807 35899 ft 443 kts 187°
2026-04-27 00:17 8.37891 -74.98750 35899 ft 443 kts 187°
2026-04-27 00:18 8.31792 -74.99690 35899 ft 444 kts 188°
2026-04-27 00:18 8.25688 -75.00634 35897 ft 443 kts 188°
2026-04-27 00:19 8.19588 -75.01579 35894 ft 443 kts 187°
2026-04-27 00:19 8.13490 -75.02516 35890 ft 443 kts 187°
2026-04-27 00:20 8.07389 -75.03453 35891 ft 443 kts 187°
2026-04-27 00:20 8.01293 -75.04391 35890 ft 443 kts 187°
2026-04-27 00:21 7.95196 -75.05331 35884 ft 444 kts 187°
2026-04-27 00:21 7.89126 -75.06263 35884 ft 444 kts 187°
2026-04-27 00:22 7.83012 -75.07204 35889 ft 445 kts 187°
2026-04-27 00:22 7.76893 -75.08149 35897 ft 445 kts 187°
2026-04-27 00:23 7.70763 -75.09097 35925 ft 445 kts 188°
2026-04-27 00:23 7.64633 -75.10033 35945 ft 445 kts 187°
2026-04-27 00:24 7.58508 -75.10954 35962 ft 446 kts 187°
2026-04-27 00:24 7.52365 -75.11872 35972 ft 446 kts 187°
2026-04-27 00:25 7.46233 -75.12804 35982 ft 445 kts 187°
2026-04-27 00:25 7.40101 -75.13738 35984 ft 445 kts 187°
2026-04-27 00:26 7.33980 -75.14674 36000 ft 444 kts 187°
2026-04-27 00:26 7.27858 -75.15602 36050 ft 445 kts 187°
2026-04-27 00:27 7.21736 -75.16529 36065 ft 445 kts 187°
2026-04-27 00:27 7.15616 -75.17453 36071 ft 444 kts 187°
2026-04-27 00:28 7.12563 -75.17914 35857 ft 442 kts 187°
2026-04-27 00:28 7.09518 -75.18374 35118 ft 442 kts 187°
2026-04-27 00:28 7.06471 -75.18835 34326 ft 444 kts 187°
2026-04-27 00:28 7.03452 -75.19281 33523 ft 444 kts 185°
2026-04-27 00:29 7.00328 -75.19421 32608 ft 445 kts 176°
2026-04-27 00:29 6.97269 -75.19270 31645 ft 448 kts 176°
2026-04-27 00:29 6.94137 -75.19109 30604 ft 453 kts 176°
2026-04-27 00:29 6.90990 -75.18947 29855 ft 451 kts 176°
2026-04-27 00:30 6.87862 -75.18787 29123 ft 448 kts 176°
2026-04-27 00:30 6.84758 -75.18630 28426 ft 445 kts 176°
2026-04-27 00:30 6.81679 -75.18476 27757 ft 441 kts 176°
2026-04-27 00:30 6.78621 -75.18326 27074 ft 438 kts 176°
2026-04-27 00:31 6.75587 -75.18177 26397 ft 435 kts 176°
2026-04-27 00:31 6.72577 -75.18026 25752 ft 431 kts 176°
2026-04-27 00:31 6.69596 -75.17876 25081 ft 428 kts 177°
2026-04-27 00:31 6.66633 -75.17725 24422 ft 424 kts 177°
2026-04-27 00:32 6.63703 -75.17576 23837 ft 418 kts 176°
2026-04-27 00:32 6.60848 -75.17428 23698 ft 402 kts 177°
2026-04-27 00:32 6.58103 -75.17286 23566 ft 388 kts 177°
2026-04-27 00:32 6.55445 -75.17146 23261 ft 379 kts 177°
2026-04-27 00:33 6.52829 -75.17007 22847 ft 374 kts 177°
2026-04-27 00:33 6.50240 -75.16877 22396 ft 371 kts 177°
2026-04-27 00:33 6.47674 -75.16756 21947 ft 368 kts 177°
2026-04-27 00:33 6.45129 -75.16633 21482 ft 364 kts 177°
2026-04-27 00:34 6.42621 -75.16516 20981 ft 359 kts 178°
2026-04-27 00:34 6.40128 -75.16543 20471 ft 360 kts 185°
2026-04-27 00:34 6.37658 -75.16944 20060 ft 359 kts 193°
2026-04-27 00:34 6.35261 -75.17583 19646 ft 355 kts 195°
2026-04-27 00:35 6.32870 -75.18220 19246 ft 356 kts 194°
2026-04-27 00:35 6.30478 -75.18858 18933 ft 352 kts 195°
2026-04-27 00:35 6.28135 -75.19491 18525 ft 347 kts 195°
2026-04-27 00:35 6.25818 -75.20121 18052 ft 346 kts 195°
2026-04-27 00:36 6.23498 -75.20749 17656 ft 344 kts 195°
2026-04-27 00:36 6.21207 -75.21379 17105 ft 338 kts 195°
2026-04-27 00:36 6.18954 -75.22005 16371 ft 335 kts 195°
2026-04-27 00:36 6.16722 -75.22621 15620 ft 332 kts 195°
2026-04-27 00:37 6.14507 -75.23235 14866 ft 328 kts 195°
2026-04-27 00:37 6.12321 -75.23834 14167 ft 323 kts 196°
2026-04-27 00:37 6.10157 -75.24426 13433 ft 321 kts 195°
2026-04-27 00:37 6.08013 -75.25005 13077 ft 315 kts 195°
2026-04-27 00:38 6.05980 -75.25563 12973 ft 292 kts 195°
2026-04-27 00:38 6.04093 -75.26071 12985 ft 269 kts 195°
2026-04-27 00:38 6.02351 -75.26550 12988 ft 252 kts 195°
2026-04-27 00:38 6.00662 -75.27017 12987 ft 253 kts 195°
2026-04-27 00:39 5.98980 -75.27476 12987 ft 249 kts 195°
2026-04-27 00:39 5.97867 -75.27775 12988 ft 251 kts 196°
2026-04-27 00:39 5.96186 -75.28230 12985 ft 250 kts 195°
2026-04-27 00:39 5.94510 -75.28684 12978 ft 249 kts 195°
2026-04-27 00:40 5.92806 -75.29144 12978 ft 258 kts 195°
2026-04-27 00:40 5.91094 -75.29609 12973 ft 253 kts 197°
2026-04-27 00:40 5.89510 -75.30354 12970 ft 252 kts 218°
2026-04-27 00:40 5.88334 -75.31613 12969 ft 248 kts 239°
2026-04-27 00:41 5.87693 -75.33209 12961 ft 248 kts 260°
2026-04-27 00:41 5.87596 -75.34939 12965 ft 249 kts 270°
2026-04-27 00:41 5.87588 -75.36682 12909 ft 251 kts 270°
2026-04-27 00:41 5.87579 -75.38485 12333 ft 264 kts 270°
2026-04-27 00:42 5.87671 -75.40316 12075 ft 261 kts 286°
2026-04-27 00:42 5.88595 -75.41804 11961 ft 250 kts 324°
2026-04-27 00:42 5.90169 -75.42401 11965 ft 244 kts 354°
2026-04-27 00:42 5.91871 -75.42485 11947 ft 245 kts
2026-04-27 00:43 5.93607 -75.42449 11496 ft 258 kts
2026-04-27 00:43 5.95453 -75.42386 10794 ft 273 kts
2026-04-27 00:43 5.97378 -75.42328 10312 ft 278 kts
2026-04-27 00:43 5.99296 -75.42273 10007 ft 274 kts
2026-04-27 00:44 6.01192 -75.42215 9649 ft 272 kts
2026-04-27 00:44 6.03069 -75.42218 9310 ft 264 kts 360°
2026-04-27 00:44 6.04844 -75.42236 8954 ft 245 kts
2026-04-27 00:44 6.06465 -75.42248 8636 ft 222 kts
2026-04-27 00:45 6.07927 -75.42257 8381 ft 196 kts 360°
2026-04-27 00:45 6.09209 -75.42265 8112 ft 173 kts 360°
2026-04-27 00:45 6.10357 -75.42272 7896 ft 158 kts 360°
2026-04-27 00:45 6.11434 -75.42279 7685 ft 152 kts 360°
2026-04-27 00:46 6.12481 -75.42286 7491 ft 149 kts 359°
2026-04-27 00:46 6.13516 -75.42293 7303 ft 148 kts
2026-04-27 00:46 6.14544 -75.42302 7127 ft 148 kts
2026-04-27 00:46 6.15557 -75.42301 6994 ft 137 kts 359°
2026-04-27 00:47 6.16392 -75.42310 6983 ft 97 kts 360°
2026-04-27 00:47 6.16896 -75.42313 7004 ft 48 kts 359°
2026-04-27 00:47 6.17184 -75.42315 7014 ft 38 kts 359°
2026-04-27 00:47 6.17423 -75.42317 7021 ft 31 kts 360°
2026-04-27 00:48 6.17564 -75.42353 7024 ft 16 kts 292°
2026-04-27 00:48 6.17566 -75.42442 7023 ft 8 kts 269°
2026-04-27 00:48 6.17554 -75.42493 7021 ft 7 kts 240°
2026-04-27 00:48 6.17522 -75.42520 7021 ft 5 kts 211°
2026-04-27 00:49 6.17493 -75.42539 7019 ft 5 kts 214°
2026-04-27 00:49 6.17470 -75.42556 7022 ft 3 kts 217°
2026-04-27 00:49 6.17455 -75.42567 7020 ft 3 kts 219°
2026-04-27 00:49 6.17432 -75.42586 7017 ft 6 kts 219°
2026-04-27 00:50 6.17385 -75.42618 7022 ft 11 kts 197°
2026-04-27 00:50 6.17229 -75.42617 7018 ft 8 kts 176°
2026-04-27 00:50 6.17187 -75.42618 7019 ft 4 kts 181°
2026-04-27 00:51 6.17176 -75.42618 7020 ft 0 kts 181°
2026-04-27 00:51 6.17164 -75.42618 7018 ft 6 kts 183°
2026-04-27 00:51 6.17142 -75.42645 7020 ft 3 kts 254°
2026-04-27 00:51 6.17142 -75.42655 7018 ft 3 kts 264°
2026-04-27 00:52 6.17141 -75.42675 7018 ft 1 kts 268°
2026-04-27 00:52 6.17141 -75.42677 7018 ft 1 kts 268°
2026-04-27 00:52 6.17140 -75.42682 7022 ft 2 kts 268°
2026-04-27 00:52 6.17140 -75.42686 7018 ft 0 kts 268°